This demonstration page uses our WeatherBlox Daily Observations layout. Learn more.

Hourly Observations for April 26, 2017

Temp ( °F °C ) Dew Point ( °F °C ) Humidity (%) Winds ( mph kmh ) Pressure ( in mb ) Visibility ( mi km ) Precip ( " mm )
12:15 am 00:15 Cloudy 36 2.3 32 0 85 85 N 17 28 29.8 1009 10 16.0934 0 0
12:35 am 00:35 Cloudy 36 2.1 32 -0.1 86 86 N 18 30 29.8 1009 10 16.0934 0 0
12:55 am 00:55 Cloudy 36 2 32 -0.2 86 86 NNW 17 28 29.8 1009 10 16.0934 0 0
1:15 am 01:15 Cloudy 36 2 31 -0.3 85 85 N 15 24 29.8 1009 10 16.0934 0 0
1:35 am 01:35 Cloudy 36 2 32 -0.2 86 86 NNW 21 33 29.8 1009 10 16.0934 0 0
1:55 am 01:55 Cloudy 36 2 31 -0.3 85 85 NNW 21 33 29.8 1009 10 16.0934 0 0
2:15 am 02:15 Cloudy 35 1.8 31 -0.6 84 84 NNW 25 41 29.8 1009 10 16.0934 0 0
2:35 am 02:35 Cloudy 35 1.6 31 -0.8 84 84 NNW 22 35 29.8 1009 10 16.0934 0 0
2:55 am 02:55 Cloudy 35 1.5 30 -1.1 83 83 N 20 31 29.8 1009 10 16.0934 0 0
3:15 am 03:15 Cloudy 35 1.5 30 -1.1 83 83 NNW 15 24 29.8 1009 10 16.0934 0 0
3:35 am 03:35 Cloudy 34 1.3 29 -1.6 81 81 NNW 18 30 29.83 1010 10 16.0934 0 0
3:55 am 03:55 Cloudy 34 1.2 29 -1.8 81 81 NNW 17 28 29.83 1010 10 16.0934 0 0
4:15 am 04:15 Cloudy 34 1.2 29 -1.7 81 81 NNW 18 30 29.83 1010 10 16.0934 0 0
4:35 am 04:35 Cloudy 34 1 28 -2.1 80 80 NNW 17 28 29.83 1010 10 16.0934 0 0
4:55 am 04:55 Cloudy 34 1 28 -2.1 80 80 NNW 21 33 29.83 1010 10 16.0934 0 0
5:15 am 05:15 Cloudy 33 0.8 26 -3.1 75 75 NNW 16 26 29.85 1011 10 16.0934 0 0
5:35 am 05:35 Cloudy 33 0.8 27 -2.7 78 78 NNW 16 26 29.85 1011 10 16.0934 0 0
5:55 am 05:55 Cloudy 33 0.8 28 -2.5 79 79 NNW 20 31 29.85 1011 10 16.0934 0 0
6:15 am 06:15 Cloudy 33 0.6 28 -2.2 82 82 NNW 14 22 29.88 1012 10 16.0934 0 0
6:35 am 06:35 Cloudy 32 0.1 27 -2.7 82 82 NNW 15 24 29.88 1012 10 16.0934 0 0
6:55 am 06:55 Cloudy 32 0.2 28 -2.5 82 82 NNW 13 20 29.88 1012 10 16.0934 0 0
7:15 am 07:15 Cloudy 33 0.5 28 -2.5 81 81 NNW 18 30 29.83 1010 10 16.0934 0 0
7:35 am 07:35 Cloudy 33 0.8 27 -2.6 78 78 NNW 16 26 29.83 1010 10 16.0934 0 0
7:55 am 07:55 Cloudy 34 1 27 -3 75 75 NNW 15 24 29.85 1011 10 16.0934 0 0
8:15 am 08:15 Cloudy 34 1.1 27 -2.7 76 76 NNW 16 26 29.85 1011 10 16.0934 0 0
8:35 am 08:35 Cloudy 35 1.5 27 -2.6 74 74 NNW 20 31 29.85 1011 10 16.0934 0 0
8:55 am 08:55 Cloudy 36 2 28 -2.1 75 75 NNW 18 30 29.83 1010 10 16.0934 0 0
9:15 am 09:15 Cloudy 36 2 28 -2.3 73 73 NNW 15 24 29.83 1010 10 16.0934 0 0
9:35 am 09:35 Cloudy 36 2.2 28 -2.3 72 72 NNW 17 28 29.83 1010 10 16.0934 0 0
9:55 am 09:55 Cloudy 38 3.1 29 -1.8 71 71 NNW 21 33 29.85 1011 10 16.0934 0 0
10:15 am 10:15 Cloudy 37 3 28 -2 70 70 NNW 18 30 29.85 1011 10 16.0934 0 0
10:35 am 10:35 Cloudy 38 3.3 29 -1.8 70 70 NW 20 31 29.83 1010 10 16.0934 0 0
10:55 am 10:55 Cloudy 38 3.2 29 -1.8 70 70 NNW 18 30 29.83 1010 10 16.0934 0 0
11:15 am 11:15 Cloudy 39 4 29 -1.4 68 68 NNW 20 31 29.8 1009 10 16.0934 0 0
11:35 am 11:35 Cloudy 39 3.8 29 -1.6 68 68 NNW 16 26 29.8 1009 10 16.0934 0 0
11:55 am 11:55 Cloudy 40 4.4 29 -1.5 66 66 NNW 21 33 29.8 1009 10 16.0934 0 0
12:15 pm 12:15 Cloudy 40 4.6 29 -1.4 65 65 N 22 35 29.8 1009 10 16.0934 0 0
12:35 pm 12:35 Cloudy 42 5.6 30 -0.9 63 63 N 20 31 29.8 1009 10 16.0934 0 0
12:55 pm 12:55 Cloudy 43 5.9 30 -1 62 62 N 18 30 29.8 1009 10 16.0934 0 0
1:15 pm 13:15 Cloudy 43 5.9 30 -0.9 62 62 NNW 17 28 29.8 1009 10 16.0934 0 0
1:35 pm 13:35 Cloudy 44 6.5 31 -0.7 60 60 N 16 26 29.8 1009 10 16.0934 0 0
1:55 pm 13:55 Cloudy 43 6.2 31 -0.8 61 61 NNW 15 24 29.8 1009 10 16.0934 0 0
2:15 pm 14:15 Cloudy 45 7.2 31 -0.5 58 58 N 14 22 29.74 1007 10 16.0934 0 0
2:35 pm 14:35 Cloudy 47 8.3 32 -0.2 55 55 N 16 26 29.74 1007 10 16.0934 0 0
2:55 pm 14:55 Cloudy 47 8.5 31 -0.3 54 54 NNW 15 24 29.77 1008 10 16.0934 0 0
3:15 pm 15:15 Cloudy 48 8.7 31 -0.7 52 52 N 13 20 29.77 1008 10 16.0934 0 0
3:35 pm 15:35 Cloudy 48 8.7 32 -0.2 54 54 NNW 12 19 29.77 1008 10 16.0934 0 0
3:55 pm 15:55 Cloudy 47 8.3 31 -0.6 54 54 N 10 17 29.77 1008 10 16.0934 0 0
4:15 pm 16:15 Mostly Cloudy 48 8.8 31 -0.7 52 52 NNW 12 19 29.74 1007 10 16.0934 0 0
4:35 pm 16:35 Mostly Cloudy 49 9.4 31 -0.5 50 50 NNW 12 19 29.74 1007 10 16.0934 0 0
4:55 pm 16:55 Mostly Cloudy 47 8.4 30 -1 52 52 NNW 8 13 29.74 1007 10 16.0934 0 0
5:15 pm 17:15 Partly Cloudy 48 9 31 -0.5 52 52 N 13 20 29.74 1007 10 16.0934 0 0
5:35 pm 17:35 Partly Cloudy 48 8.8 31 -0.8 51 51 N 13 20 29.74 1007 10 16.0934 0 0
5:55 pm 17:55 Partly Cloudy 48 8.8 31 -0.5 52 52 N 13 20 29.74 1007 10 16.0934 0 0
6:15 pm 18:15 Partly Cloudy 48 8.8 31 -0.6 52 52 NNW 14 22 29.74 1007 10 16.0934 0 0
6:35 pm 18:35 Sunny 48 8.8 30 -1 51 51 N 13 20 29.74 1007 10 16.0934 0 0
6:55 pm 18:55 Sunny 47 8.6 30 -1.1 51 51 N 13 20 29.74 1007 10 16.0934 0 0
7:15 pm 19:15 Sunny 47 8.5 30 -0.9 52 52 NNW 9 15 29.71 1006 10 16.0934 0 0
7:35 pm 19:35 Sunny 47 8.1 30 -1.1 53 53 N 10 17 29.71 1006 10 16.0934 0 0
7:55 pm 19:55 Sunny 46 7.6 30 -1.1 54 54 N 9 15 29.71 1006 10 16.0934 0 0
8:15 pm 20:15 Sunny 45 7 30 -1.2 56 56 N 7 11 29.71 1006 10 16.0934 0 0
8:35 pm 20:35 Clear 42 5.7 29 -1.5 60 60 N 6 9 29.74 1007 10 16.0934 0 0
8:55 pm 20:55 Clear 39 3.7 28 -2.1 66 66 NNE 7 11 29.74 1007 10 16.0934 0 0
9:15 pm 21:15 Clear 40 4.2 29 -1.5 67 67 N 7 11 29.77 1008 10 16.0934 0 0
9:35 pm 21:35 Clear 37 2.7 28 -2.1 71 71 N 5 7 29.8 1009 10 16.0934 0 0
9:55 pm 21:55 Clear 36 2 28 -2.5 72 72 N 6 9 29.8 1009 10 16.0934 0 0
10:15 pm 22:15 Clear 34 1.3 27 -2.6 76 76 NNE 3 6 29.83 1010 10 16.0934 0 0
10:35 pm 22:35 Clear 34 1.1 28 -2.3 78 78 Calm 29.83 1010 10 16.0934 0 0
10:55 pm 22:55 Clear 33 0.7 28 -2.5 79 79 Calm 29.83 1010 10 16.0934 0 0
11:15 pm 23:15 Clear 33 0.8 28 -2.2 81 81 Calm 29.83 1010 10 16.0934 0 0
11:35 pm 23:35 Clear 33 0.5 28 -2.1 83 83 NE 6 9 29.83 1010 10 16.0934 0 0
11:55 pm 23:55 Clear 32 -0.2 27 -2.9 82 82 NE 6 9 29.85 1011 10 16.0934 0 0

Powered by AerisWeather